Current weather by "City, St" or "zip code"  
 

Current Conditions: LA PORTE

NULL


NULL F

Last Updated on May 26 2024, 03:35 AM CDT
Humidity: %
Wind Speed: mph
Barometer in
Dewpoint: F
Visibility: 7.00 mi
Precip: --
Heat Index: NA
Wind Chill: NA
Current conditions at:

LA PORTE (KT41)

Lat: 29.67 Lon: 95.0699999

active severe weather and emergency alerts image image weather storm and storm spotter reports image weather observation monitoring service image
Active
Alerts
Storm Reports Obs
Monitoring

Sign-up For Email & Text Message Weather Alert Notification Services



Advertise Here

Observation History for LA PORTE


Time Wind
(mph)
Vis
(mi)
Weather Precip (in) Temperature (F) Relative
Humidity
Wind
Chill
(F)
Heat
Index
(F)
Pressure
Air Dwpt altimeter
(in)
sea level
(mb)
Rmks
03:35 AM CDT 7.00 NULL -- NULL % NA NA M
03:15 AM CDT 8.1 7.00 Cloudy -- 81.7 76.8 85% NA 89.2 29.76 1007.8
02:35 AM CDT S 16.1 7.00 Cloudy -- 81.9 % NA NA 29.76 1007.8
01:55 AM CDT 7.00 Cloudy -- NULL % NA NA M
11:35 PM CDT 15.0 10.00 Partly Cloudy -- 81.5 % NA NA 29.81 1009.5
11:15 PM CDT 13.8 10.00 Partly Cloudy -- 81.9 % NA NA 29.81 1009.5
10:55 PM CDT S 12.7 10.00 Mostly Cloudy -- 81.9 75.9 82% NA 89.1 29.82 1009.8
10:35 PM CDT 10.00 Mostly Cloudy -- NULL % NA NA M
09:35 PM CDT SE 12.7 10.00 Mostly Cloudy -- 82.0 76.5 83% NA 89.8 29.79 1008.8
09:15 PM CDT SE 16.1 10.00 Cloudy -- 82.8 % NA NA 29.79 1008.8
08:55 PM CDT 10.00 Cloudy -- NULL % NA NA M
08:15 PM CDT 10.4 10.00 Clear -- 82.0 % NA NA 29.78 1008.5
07:55 PM CDT 10.00 Clear -- NULL % NA NA M
06:35 PM CDT SE 12.7 10.00 Clear -- 87.3 % NA NA 29.77 1008.1
06:15 PM CDT SE 15.0 10.00 Clear -- 87.6 72.9 62% NA 95.2 29.77 1008.1
05:55 PM CDT 10.00 Clear -- NULL % NA NA M
05:15 PM CDT S 13.8 10.00 Partly Cloudy -- 88.2 74.3 64% NA 97.3 29.77 1008.1
04:15 PM CDT SE 12.7 10.00 NULL -- 89.1 % NA NA 29.78 1008.5
03:35 PM CDT 15.0 10.00 Partly Cloudy -- 88.0 % NA NA 29.80 1009.1
03:15 PM CDT 15.0 10.00 Partly Cloudy -- 88.5 78.8 73% NA 103.5 29.81 1009.5
02:55 PM CDT E 16.1 10.00 Partly Cloudy -- 88.0 78.6 74% NA 102.4 29.81 1009.5
02:35 PM CDT 10.00 Partly Cloudy -- NULL % NA NA M
02:15 PM CDT 16.1 10.00 Partly Cloudy -- 88.7 % NA NA 29.82 1009.8
01:35 PM CDT 10.00 Partly Cloudy -- 88.2 % NA NA 29.83 1010.2

Regional Weather Observation


HOUSTON/UNIV (KMCJ)

NULL
80.6 F

HOUSTON/HOBBY (KHOU)

NULL
82.9 F

HOUSTON/ELLINGTO (KEFD)

NULL
80.6 F

HOUSTON/INTNL (KIAH)

NULL
82.0 F

HOUSTON (KLVJ)

NULL
82.0 F

HOUSTON/SOUTHWST (KAXH)

NULL
81.5 F

Advertise Here


Advertise Here